Location: Cahas Mountain Overlook
(37.0833°N, 80.1000°W)
Time: 10:16:27
(UTC-04:00)

Vanguard 1 Rocket - Pass Details

Date: 12 February 2026
Orbit: 653 x 4214 km, 34.3° (Epoch: 15 March)

Event Time Altitude Azimuth Distance (km) Brightness Sun altitude
Rises 23:37:46 0° 281° (W) 8,331 12.5 -63.1°
Reaches altitude 10° 23:47:37 10° 263° (W) 7,414 12.0 -64.1°
Maximum altitude 23:59:33 16° 235° (SW) 6,651 11.6 -65.0°
Enters shadow 00:00:15 16° 233° (SW) 6,623 11.6 -65.1°
